Total_Precipitation_Accumulation
0.00 0.00 0.00 0.00 0.00 0.00 0.00 0.00 0.00 0.01 0.00 0.00 0.00 0.00 0.00 0.00 0.00 0.00 0.02 0.00 0.04 0.01 0.01 0.00 0.01 0.00 0.03 0.18 0.14 0.11 0.09 0.30 0.30 0.36 1.01 0.12 0.10 0.06 0.03 0.08 0.11 0.18 0.15 0.22 0.08 0.11 0.17 0.10 0.04 0.01 0.01 0.02 0.01 0.01 0.01 0.01 0.01 0.00 0.01 0.01 0.02 0.01 0.01 0.02 0.04 0.04 0.03 0.02 0.02 0.01 0.01 0.01 0.02 0.03 0.05 0.04 0.05 0.05 0.05 0.11 0.10 0.15 0.15 0.18 0.12 0.13 0.07 0.08 0.17 0.10 0.13 0.10 0.09 0.12 0.09 0.09 0.09
0.00 0.00 0.00 0.00 0.00 0.00 0.02 0.00 0.00 0.00 0.00 0.00 0.00 0.00 0.00 0.00 0.00 0.00 0.03 0.03 0.00 0.01 0.00 0.01 0.00 0.00 0.00 0.00 0.00 0.01 0.04 0.14 0.15 0.15 0.26 0.18 0.09 0.06 0.15 0.30 0.46 0.33 0.25 0.14 0.10 0.08 0.12 0.11 0.07 0.02 0.02 0.04 0.02 0.01 0.00 0.01 0.01 0.01 0.01 0.05 0.02 0.01 0.01 0.01 0.04 0.04 0.02 0.01 0.01 0.02 0.02 0.02 0.03 0.03 0.05 0.05 0.04 0.05 0.04 0.13 0.22 0.23 0.16 0.11 0.14 0.11 0.06 0.10 0.15 0.09 0.09 0.07 0.08 0.06 0.06 0.07 0.08
0.00 0.00 0.00 0.00 0.00 0.00 0.00 0.00 0.00 0.00 0.00 0.00 0.00 0.00 0.00 0.00 0.00 0.00 0.01 0.00 0.00 0.00 0.00 0.00 0.00 0.00 0.00 0.00 0.07 0.16 0.70 0.13 0.05 0.11 0.34 0.18 0.12 0.36 0.26 0.46 0.34 0.34 0.30 0.27 0.13 0.07 0.11 0.09 0.09 0.03 0.06 0.03 0.02 0.02 0.01 0.01 0.01 0.02 0.01 0.04 0.02 0.01 0.01 0.04 0.03 0.03 0.02 0.02 0.02 0.03 0.04 0.07 0.04 0.07 0.05 0.06 0.04 0.04 0.05 0.09 0.21 0.21 0.15 0.14 0.14 0.15 0.11 0.15 0.14 0.11 0.15 0.10 0.08 0.08 0.06 0.06 0.03
0.00 0.00 0.00 0.00 0.01 0.00 0.00 0.00 0.00 0.00 0.00 0.00 0.00 0.00 0.00 0.00 0.00 0.00 0.00 0.00 0.00 0.00 0.00 0.01 0.01 0.00 0.03 0.05 0.08 0.00 0.08 0.29 0.10 0.07 0.25 0.20 0.12 0.23 0.29 0.40 0.26 0.33 0.33 0.28 0.18 0.16 0.10 0.13 0.09 0.08 0.05 0.02 0.02 0.02 0.01 0.01 0.01 0.02 0.02 0.02 0.02 0.01 0.02 0.02 0.03 0.03 0.02 0.03 0.02 0.05 0.07 0.12 0.10 0.07 0.11 0.10 0.04 0.05 0.07 0.07 0.11 0.16 0.12 0.15 0.18 0.07 0.08 0.13 0.09 0.16 0.12 0.05 0.03 0.04 0.03 0.02 0.03
0.00 0.00 0.00 0.00 0.01 0.00 0.00 0.00 0.00 0.00 0.00 0.00 0.00 0.00 0.00 0.00 0.00 0.00 0.00 0.00 0.00 0.00 0.00 0.02 0.00 0.03 0.01 0.09 0.04 0.11 0.21 0.09 0.13 0.08 0.07 0.11 0.07 0.21 0.48 0.68 0.60 0.45 0.25 0.28 0.19 0.16 0.19 0.13 0.06 0.17 0.06 0.05 0.03 0.03 0.02 0.01 0.02 0.01 0.02 0.01 0.01 0.01 0.01 0.02 0.03 0.04 0.03 0.04 0.06 0.08 0.09 0.12 0.12 0.08 0.09 0.08 0.05 0.05 0.04 0.04 0.06 0.08 0.06 0.04 0.03 0.01 0.03 0.03 0.04 0.05 0.02 0.02 0.02 0.02 0.03 0.01 0.02
0.00 0.00 0.00 0.00 0.02 0.00 0.00 0.01 0.00 0.00 0.00 0.00 0.00 0.00 0.00 0.00 0.00 0.00 0.00 0.00 0.00 0.00 0.00 0.04 0.04 0.13 0.09 0.06 0.15 0.08 0.09 0.26 0.05 0.10 0.08 0.23 0.14 0.39 0.56 0.60 0.40 0.31 0.31 0.38 0.29 0.21 0.28 0.08 0.06 0.12 0.12 0.14 0.08 0.12 0.02 0.02 0.02 0.02 0.01 0.02 0.02 0.01 0.01 0.01 0.03 0.04 0.05 0.07 0.09 0.10 0.08 0.13 0.10 0.13 0.13 0.14 0.10 0.09 0.07 0.08 0.06 0.03 0.04 0.06 0.06 0.02 0.04 0.02 0.01 0.01 0.00 0.01 0.04 0.04 0.00 0.01 0.01
0.00 0.00 0.00 0.00 0.00 0.00 0.00 0.00 0.00 0.00 0.00 0.00 0.00 0.00 0.00 0.00 0.00 0.00 0.00 0.00 0.00 0.00 0.00 0.02 0.01 0.03 0.15 0.05 0.02 0.06 0.06 0.05 0.19 0.13 0.12 0.16 0.21 0.45 0.52 0.32 0.26 0.43 0.48 0.30 0.18 0.16 0.25 0.05 0.08 0.15 0.14 0.15 0.16 0.14 0.08 0.04 0.03 0.03 0.02 0.01 0.04 0.02 0.02 0.03 0.03 0.07 0.08 0.11 0.11 0.10 0.12 0.12 0.10 0.11 0.17 0.19 0.11 0.10 0.12 0.04 0.04 0.05 0.07 0.06 0.05 0.04 0.03 0.02 0.01 0.01 0.01 0.02 0.01 0.00 0.01 0.01 0.02
0.00 0.00 0.00 0.00 0.00 0.00 0.00 0.00 0.00 0.00 0.00 0.00 0.00 0.00 0.00 0.00 0.00 0.00 0.00 0.00 0.00 0.00 0.00 0.00 0.00 0.06 0.90 0.02 0.38 0.06 0.06 0.05 0.12 0.06 0.06 0.19 0.50 0.53 0.42 0.29 0.30 0.66 0.36 0.30 0.18 0.13 0.42 0.07 0.04 0.05 0.10 0.15 0.12 0.26 0.18 0.12 0.05 0.05 0.02 0.01 0.02 0.01 0.05 0.05 0.03 0.07 0.09 0.14 0.14 0.09 0.11 0.15 0.10 0.07 0.13 0.11 0.18 0.07 0.07 0.04 0.02 0.11 0.06 0.03 0.03 0.03 0.03 0.02 0.01 0.01 0.02 0.02 0.00 0.00 0.01 0.03 0.00
0.00 0.00 0.00 0.00 0.00 0.00 0.00 0.00 0.00 0.00 0.00 0.00 0.00 0.00 0.00 0.00 0.00 0.00 0.00 0.00 0.00 0.00 0.01 0.01 0.01 0.15 0.52 0.18 0.35 0.18 0.16 0.17 0.07 0.07 0.58 0.47 0.66 0.61 0.73 0.21 0.45 0.45 0.44 0.47 0.26 0.28 0.26 0.07 0.04 0.03 0.04 0.03 0.12 0.16 0.16 0.13 0.08 0.06 0.03 0.02 0.03 0.01 0.03 0.04 0.06 0.08 0.10 0.11 0.12 0.22 0.15 0.11 0.08 0.07 0.06 0.10 0.17 0.10 0.06 0.05 0.04 0.08 0.03 0.04 0.03 0.05 0.03 0.03 0.02 0.04 0.02 0.01 0.01 0.00 0.00 0.00 0.00
0.00 0.00 0.00 0.00 0.00 0.00 0.00 0.00 0.00 0.00 0.00 0.00 0.00 0.00 0.00 0.00 0.00 0.00 0.00 0.00 0.00 0.00 0.00 0.00 0.00 0.03 0.12 0.76 0.28 0.33 0.38 0.26 0.26 0.23 0.30 0.53 1.16 1.28 0.81 1.06 0.38 0.68 0.64 0.62 0.44 0.33 0.28 0.53 0.05 0.03 0.04 0.01 0.05 0.13 0.14 0.12 0.08 0.02 0.03 0.02 0.02 0.04 0.04 0.08 0.03 0.06 0.08 0.09 0.12 0.14 0.12 0.08 0.08 0.06 0.05 0.06 0.12 0.20 0.06 0.04 0.04 0.06 0.03 0.03 0.03 0.04 0.01 0.02 0.02 0.03 0.02 0.01 0.00 0.00 0.00 0.00 0.00
0.00 0.00 0.00 0.00 0.00 0.00 0.00 0.00 0.00 0.00 0.00 0.00 0.00 0.00 0.00 0.00 0.00 0.00 0.00 0.00 0.00 0.00 0.00 0.01 0.01 0.03 0.04 0.48 0.55 0.29 0.55 0.28 0.26 0.53 0.53 0.57 1.02 1.16 1.94 0.98 0.71 0.65 0.93 0.77 0.81 0.50 0.36 0.60 0.41 0.06 0.07 0.08 0.04 0.05 0.15 0.18 0.19 0.07 0.01 0.02 0.02 0.08 0.07 0.06 0.06 0.12 0.10 0.10 0.12 0.10 0.19 0.08 0.08 0.06 0.07 0.08 0.10 0.08 0.03 0.04 0.04 0.07 0.04 0.02 0.03 0.01 0.01 0.01 0.01 0.01 0.01 0.00 0.00 0.00 0.00 0.00 0.00
0.00 0.00 0.00 0.00 0.00 0.00 0.00 0.00 0.00 0.00 0.00 0.00 0.00 0.00 0.00 0.00 0.00 0.00 0.00 0.00 0.00 0.00 0.01 0.00 0.05 0.00 0.18 0.17 0.42 0.95 0.67 0.56 1.00 0.57 0.62 1.10 0.89 0.60 0.87 0.50 0.45 0.83 0.82 1.32 0.69 0.55 0.61 0.64 0.73 0.77 0.23 0.18 0.18 0.16 0.34 0.27 0.23 0.17 0.04 0.04 0.04 0.06 0.05 0.04 0.07 0.14 0.07 0.12 0.07 0.08 0.09 0.06 0.12 0.06 0.04 0.03 0.05 0.04 0.05 0.05 0.10 0.10 0.05 0.03 0.05 0.02 0.02 0.02 0.02 0.01 0.00 0.00 0.00 0.00 0.00 0.00 0.00
0.00 0.00 0.00 0.00 0.00 0.00 0.00 0.00 0.00 0.00 0.00 0.00 0.00 0.00 0.00 0.00 0.00 0.00 0.00 0.00 0.00 0.00 0.00 0.00 0.00 0.00 0.61 0.29 0.39 0.70 0.81 0.98 0.66 0.87 0.78 1.00 0.66 0.60 0.63 0.47 0.88 0.92 0.69 0.85 0.55 0.45 0.41 0.47 0.47 0.60 0.61 0.37 0.33 0.34 0.27 0.25 0.13 0.15 0.17 0.08 0.11 0.11 0.08 0.08 0.12 0.11 0.12 0.07 0.04 0.05 0.08 0.08 0.05 0.06 0.04 0.05 0.02 0.03 0.03 0.06 0.06 0.06 0.03 0.02 0.02 0.03 0.01 0.00 0.00 0.00 0.00 0.00 0.00 0.00 0.00 0.00 0.00
0.00 0.00 0.00 0.00 0.00 0.00 0.00 0.01 0.00 0.00 0.00 0.00 0.00 0.00 0.00 0.00 0.00 0.00 0.00 0.00 0.00 0.00 0.00 0.00 0.00 0.04 0.44 0.18 0.88 0.85 0.83 0.60 0.37 0.45 0.48 0.99 0.71 0.55 0.69 0.56 1.49 1.20 1.16 0.71 0.48 0.38 0.38 0.38 0.48 0.45 0.78 0.70 0.85 0.60 0.25 0.26 0.29 0.19 0.21 0.34 0.18 0.13 0.12 0.17 0.15 0.10 0.08 0.03 0.07 0.09 0.10 0.08 0.09 0.05 0.06 0.07 0.04 0.06 0.03 0.03 0.05 0.04 0.04 0.02 0.01 0.02 0.04 0.03 0.03 0.04 0.07 0.01 0.00 0.00 0.00 0.00 0.00
0.00 0.00 0.00 0.00 0.00 0.00 0.00 0.00 0.01 0.00 0.00 0.00 0.00 0.00 0.00 0.00 0.00 0.01 0.00 0.00 0.00 0.00 0.00 0.00 0.00 0.05 1.36 0.19 0.65 0.41 0.45 0.26 0.42 0.82 0.91 0.27 0.26 0.75 0.75 1.39 1.40 1.18 1.07 1.13 0.71 0.63 0.66 0.47 0.41 0.52 0.56 0.58 0.88 1.10 1.44 1.36 0.72 1.02 0.66 0.29 0.38 0.41 0.24 0.64 0.55 0.25 0.10 0.08 0.06 0.07 0.10 0.10 0.12 0.05 0.08 0.13 0.07 0.04 0.06 0.03 0.07 0.04 0.03 0.03 0.02 0.01 0.05 0.05 0.08 0.02 0.00 0.01 0.00 0.00 0.00 0.00 0.00
0.00 0.00 0.00 0.00 0.00 0.00 0.00 0.00 0.00 0.00 0.00 0.00 0.00 0.00 0.00 0.00 0.00 0.01 0.01 0.00 0.03 0.00 0.00 0.06 0.00 0.05 0.11 0.07 0.27 0.23 0.22 0.29 0.35 0.26 0.24 0.46 0.50 0.56 0.53 0.53 0.74 0.88 0.99 0.96 0.87 0.74 0.54 0.52 0.57 0.57 0.67 0.93 1.27 1.49 1.21 0.93 1.53 1.92 1.18 0.61 0.66 0.71 0.94 0.79 0.30 0.31 0.23 0.15 0.17 0.12 0.11 0.23 0.18 0.31 0.16 0.27 0.09 0.04 0.03 0.11 0.04 0.03 0.03 0.02 0.03 0.02 0.02 0.04 0.00 0.02 0.01 0.00 0.00 0.00 0.00 0.00 0.00
0.00 0.00 0.01 0.00 0.00 0.00 0.00 0.00 0.00 0.02 0.00 0.00 0.00 0.00 0.00 0.00 0.00 0.00 0.00 0.00 0.00 0.00 0.00 0.00 0.01 0.00 0.12 0.21 0.14 0.11 0.32 0.22 0.15 0.28 0.19 0.34 0.39 0.44 0.72 0.84 0.94 1.22 0.88 0.95 0.71 0.90 0.60 0.69 1.27 1.39 0.88 1.10 1.59 1.44 1.39 1.04 0.86 1.30 1.05 1.45 0.83 0.76 0.33 0.30 0.19 0.19 0.23 0.21 0.22 0.17 0.15 0.31 0.64 0.51 0.40 0.51 0.13 0.16 0.02 0.04 0.05 0.07 0.04 0.01 0.01 0.02 0.00 0.02 0.06 0.03 0.02 0.00 0.00 0.00 0.00 0.00 0.00
0.00 0.00 0.00 0.00 0.00 0.00 0.00 0.00 0.00 0.00 0.00 0.00 0.00 0.00 0.00 0.00 0.00 0.00 0.00 0.00 0.00 0.00 0.01 0.03 0.01 0.14 0.12 0.16 0.18 0.13 0.15 0.20 0.25 0.19 0.36 0.27 0.31 0.58 1.01 1.13 1.13 1.03 0.79 0.91 0.81 0.83 0.73 1.12 1.32 1.39 1.33 1.42 0.77 1.65 1.90 1.13 1.61 1.51 1.83 0.94 1.42 0.90 0.53 0.22 0.38 0.37 0.89 0.47 0.23 0.38 0.73 0.67 0.82 0.78 0.78 0.60 0.45 0.19 0.20 0.03 0.03 0.03 0.04 0.01 0.00 0.00 0.00 0.01 0.04 0.05 0.05 0.01 0.00 0.00 0.00 0.01 0.00
0.00 0.00 0.00 0.00 0.00 0.00 0.00 0.00 0.00 0.00 0.00 0.00 0.00 0.00 0.00 0.00 0.00 0.00 0.03 0.01 0.00 0.01 0.03 0.05 0.10 0.15 0.12 0.26 0.14 0.15 0.16 0.33 0.27 0.52 0.45 0.22 0.39 0.40 0.70 0.64 0.56 0.78 0.74 0.99 1.26 1.36 1.79 1.27 1.22 1.31 1.39 1.56 1.44 1.55 1.51 1.09 1.44 1.18 1.36 1.02 1.02 0.93 1.01 0.39 0.44 0.69 0.59 0.65 0.53 0.53 0.89 0.91 0.81 0.90 1.01 0.48 0.37 0.09 0.24 0.04 0.04 0.03 0.01 0.01 0.01 0.02 0.03 0.01 0.01 0.05 0.05 0.03 0.00 0.00 0.01 0.03 0.01
0.00 0.00 0.00 0.00 0.00 0.00 0.00 0.00 0.00 0.00 0.00 0.00 0.00 0.00 0.00 0.00 0.00 0.00 0.00 0.02 0.02 0.04 0.12 0.08 0.12 0.38 0.23 0.26 0.27 0.26 0.22 0.28 0.33 0.78 1.16 1.19 0.85 0.58 0.66 0.76 0.85 0.91 0.81 0.91 0.74 1.04 1.71 2.18 2.27 2.77 1.35 1.16 0.60 1.09 1.65 0.88 0.99 0.90 1.14 0.82 0.55 0.89 1.02 0.82 0.80 0.52 0.73 1.01 1.17 0.99 1.42 1.19 1.06 0.88 0.52 0.59 0.41 0.25 0.23 0.13 0.08 0.04 0.01 0.00 0.01 0.02 0.03 0.02 0.03 0.02 0.13 0.05 0.01 0.02 0.01 0.03 0.03
0.00 0.00 0.00 0.00 0.00 0.00 0.00 0.00 0.00 0.00 0.00 0.00 0.00 0.00 0.00 0.00 0.00 0.00 0.01 0.05 0.03 0.09 0.08 0.16 0.15 0.36 0.29 0.24 0.24 0.37 0.41 0.58 1.11 3.36 2.44 1.28 1.96 2.08 1.64 1.18 1.76 1.82 2.19 1.48 1.34 1.70 1.53 1.80 1.48 2.30 1.91 1.88 1.47 1.50 1.38 1.28 1.09 1.86 1.72 1.06 1.24 0.98 0.89 0.90 0.92 1.28 1.58 1.56 1.05 1.06 0.77 1.42 1.55 1.13 0.57 0.44 0.48 0.26 0.32 0.22 0.24 0.21 0.11 0.11 0.01 0.09 0.10 0.15 0.10 0.23 0.11 0.04 0.02 0.01 0.00 0.01 0.02
0.00 0.00 0.00 0.00 0.00 0.00 0.00 0.00 0.00 0.00 0.00 0.00 0.00 0.00 0.00 0.00 0.00 0.00 0.01 0.03 0.19 0.07 0.03 0.05 0.19 0.21 0.27 0.24 0.31 0.40 0.89 1.67 2.89 4.48 2.69 3.25 4.42 2.75 1.69 1.98 1.89 1.56 1.47 1.21 1.03 1.87 1.67 1.42 1.90 1.94 1.57 1.36 1.06 1.39 1.68 1.15 0.76 1.61 1.67 1.92 1.31 1.32 1.12 1.46 1.40 1.33 1.47 1.32 1.00 0.85 1.00 1.33 1.44 1.05 1.17 0.72 0.52 0.34 0.33 0.20 0.28 0.30 0.14 0.16 0.07 0.09 0.23 0.20 0.15 0.16 0.06 0.07 0.05 0.03 0.02 0.01 0.01
0.00 0.00 0.00 0.00 0.00 0.00 0.00 0.00 0.00 0.00 0.00 0.00 0.00 0.00 0.00 0.00 0.00 0.00 0.00 0.00 0.03 0.02 0.03 0.06 0.12 0.26 0.33 0.21 0.29 0.51 1.16 2.65 4.37 2.91 2.30 3.57 2.91 2.12 1.52 2.00 1.98 1.98 1.98 2.27 2.12 1.48 1.77 1.88 2.46 2.45 1.92 1.44 1.45 1.58 1.66 1.25 1.21 2.06 1.49 1.39 1.39 1.69 1.27 1.49 1.98 1.58 1.67 1.91 1.56 1.51 1.61 1.54 1.25 1.03 0.94 0.87 0.82 0.91 1.09 0.93 0.49 0.70 0.33 0.25 0.08 0.18 0.27 0.19 0.39 0.51 0.53 0.08 0.03 0.05 0.03 0.02 0.01
0.00 0.00 0.00 0.00 0.00 0.00 0.00 0.00 0.00 0.00 0.00 0.00 0.00 0.00 0.00 0.00 0.00 0.00 0.00 0.00 0.00 0.02 0.19 0.01 0.33 0.84 0.68 0.65 0.87 0.77 1.12 2.94 3.48 3.74 3.73 2.54 2.27 2.12 1.97 1.84 1.78 2.00 2.38 1.95 1.99 2.74 2.09 1.91 1.57 1.90 1.62 1.30 1.14 1.56 1.67 1.86 1.85 1.54 1.32 1.71 1.81 1.04 1.06 1.38 1.57 1.56 1.95 1.70 1.13 1.55 1.43 1.59 1.15 1.16 0.95 1.04 0.93 1.25 1.53 0.99 0.87 0.83 0.97 0.60 0.27 0.10 0.18 0.55 0.35 0.29 0.37 0.35 0.16 0.07 0.16 0.03 0.03
0.00 0.00 0.00 0.00 0.00 0.00 0.00 0.00 0.00 0.00 0.00 0.00 0.00 0.00 0.00 0.00 0.00 0.00 0.00 0.00 0.00 0.01 0.02 0.03 0.29 1.32 0.95 0.74 0.98 1.64 2.25 2.89 1.52 1.82 2.53 3.50 2.98 2.11 2.40 2.28 2.13 1.72 1.58 1.71 2.98 3.17 1.70 1.72 1.66 1.44 1.15 1.82 1.63 1.65 1.74 1.61 1.50 1.73 1.38 1.48 2.00 1.95 1.43 1.19 1.73 2.36 1.40 1.38 1.21 0.99 1.20 1.49 1.41 0.78 1.02 1.17 1.59 1.20 1.03 0.82 0.64 0.71 0.78 0.67 0.29 0.30 0.42 0.47 0.42 0.74 0.64 0.34 0.13 0.30 0.22 0.25 0.42
0.00 0.00 0.00 0.00 0.00 0.00 0.00 0.00 0.00 0.00 0.00 0.00 0.00 0.00 0.00 0.00 0.00 0.00 0.02 0.01 0.01 0.01 0.07 0.08 0.45 1.03 1.03 0.70 0.83 1.12 1.22 0.72 0.98 1.08 1.49 1.69 1.91 2.22 2.29 2.01 1.93 1.51 1.61 2.09 1.80 2.57 2.36 2.07 1.28 1.49 1.38 1.54 1.37 1.46 1.67 0.76 1.32 1.57 1.24 1.05 2.01 1.44 1.35 1.15 1.26 1.67 1.64 1.33 1.12 0.98 1.39 1.67 1.38 1.43 1.24 1.11 1.28 1.63 0.88 1.00 0.88 0.83 0.49 0.55 0.15 0.38 0.56 0.69 0.96 0.47 0.56 0.29 0.49 0.75 0.29 0.09 0.04
0.00 0.00 0.00 0.00 0.00 0.00 0.00 0.00 0.00 0.00 0.00 0.00 0.00 0.00 0.00 0.00 0.00 0.04 0.09 0.02 0.02 0.03 0.20 0.33 0.60 0.89 0.89 0.69 0.92 1.71 0.70 0.80 1.01 1.44 1.27 1.62 1.73 2.25 2.12 2.56 1.65 1.54 1.69 1.91 1.70 1.65 1.81 1.76 2.08 1.58 0.91 0.82 0.76 1.13 1.03 1.00 1.29 1.43 1.26 1.24 1.07 1.05 0.76 0.91 1.14 1.12 1.36 1.55 0.96 0.92 1.01 1.49 1.93 1.68 1.27 1.51 1.18 1.68 1.45 1.41 1.30 2.03 1.46 0.88 0.55 0.41 0.51 0.77 0.83 0.80 0.78 0.54 0.54 0.72 0.45 0.24 0.17
0.00 0.00 0.00 0.00 0.00 0.00 0.00 0.00 0.00 0.00 0.00 0.00 0.00 0.00 0.00 0.00 0.00 0.05 0.04 0.29 0.09 0.11 0.26 0.52 0.72 0.85 1.25 0.68 0.96 1.14 1.45 1.68 2.17 1.79 1.25 1.18 1.34 1.61 1.61 1.98 1.81 1.42 1.27 1.55 2.08 2.16 2.01 2.06 1.51 1.22 1.19 1.54 1.47 1.86 1.23 1.24 0.98 0.96 1.20 1.01 0.86 0.93 0.74 0.60 0.76 0.69 1.01 1.47 1.43 1.25 1.24 1.09 1.06 1.56 1.71 1.55 1.66 1.54 1.79 1.55 2.00 1.89 1.45 1.13 0.84 1.25 0.72 0.82 0.80 0.53 0.81 0.66 1.00 0.88 0.68 0.28 0.11
0.00 0.00 0.00 0.00 0.00 0.00 0.00 0.00 0.00 0.00 0.00 0.00 0.00 0.00 0.00 0.00 0.01 0.05 0.21 0.26 0.47 0.42 0.53 0.64 0.90 1.41 1.02 1.34 1.76 1.72 2.09 1.29 1.71 2.18 2.11 2.69 2.37 2.46 2.24 1.69 1.63 1.80 1.59 1.35 1.91 2.05 1.67 1.43 1.43 1.25 1.29 1.31 1.11 0.83 0.83 1.07 0.95 0.80 0.62 0.95 1.07 0.53 0.73 0.57 1.17 0.97 0.90 1.55 1.42 1.32 1.43 0.91 1.10 1.35 1.86 1.32 1.35 1.32 1.74 1.90 1.52 1.49 2.01 1.63 0.97 0.90 0.80 0.73 0.88 0.43 0.49 0.33 0.31 0.24 0.31 0.24 0.18
0.00 0.00 0.00 0.00 0.00 0.00 0.00 0.00 0.00 0.00 0.00 0.00 0.00 0.00 0.00 0.00 0.03 0.02 0.04 0.25 0.22 0.57 0.92 1.26 1.71 1.51 2.65 2.17 1.32 1.35 1.64 2.91 3.15 2.19 2.31 2.17 2.21 2.13 1.29 1.18 1.52 1.39 1.26 1.26 1.51 1.34 1.08 1.79 1.91 1.72 1.49 1.31 0.85 1.10 1.03 1.04 1.19 1.75 1.39 1.10 0.71 0.48 0.57 0.76 0.95 1.39 1.43 1.47 1.40 1.16 1.44 1.01 1.03 1.34 1.30 1.39 1.53 1.23 1.57 1.64 1.91 1.41 2.08 1.47 1.18 1.11 0.64 0.71 0.57 0.64 0.79 0.49 0.34 0.64 0.74 0.46 0.38
0.00 0.00 0.00 0.00 0.00 0.00 0.00 0.00 0.00 0.00 0.00 0.00 0.00 0.00 0.01 0.02 0.02 0.03 0.15 0.25 0.77 1.25 1.43 1.69 2.24 1.32 1.51 1.70 1.54 1.42 2.05 2.03 1.94 1.73 1.61 1.44 1.98 1.25 1.26 1.35 1.28 1.09 0.87 1.16 1.62 1.49 1.24 1.48 1.90 1.91 1.61 1.55 1.21 1.53 0.94 1.17 1.99 1.48 1.68 1.35 0.97 0.42 0.76 1.04 1.54 1.69 0.81 0.90 1.15 1.13 1.66 1.31 1.42 1.55 1.84 2.04 1.99 1.67 1.49 1.64 1.56 1.62 1.60 1.94 1.31 0.96 1.22 1.20 1.04 1.17 1.03 0.64 0.25 0.64 0.63 0.49 0.48
0.00 0.00 0.00 0.00 0.00 0.00 0.00 0.00 0.00 0.00 0.00 0.00 0.00 0.00 0.06 0.02 0.02 0.07 0.36 0.82 1.27 0.85 1.05 1.32 1.53 1.14 1.16 1.47 1.23 1.24 0.97 1.14 1.32 1.19 1.55 2.09 1.21 1.07 1.08 1.39 1.18 1.01 1.10 1.56 1.38 1.33 1.23 1.45 1.23 1.28 2.01 1.96 1.34 0.94 1.26 1.90 1.57 1.10 1.06 1.14 1.02 0.86 0.82 1.22 1.23 1.28 1.16 0.97 0.91 1.18 1.22 1.65 1.48 1.37 1.64 1.80 1.85 1.13 1.81 1.76 1.37 1.74 1.51 2.14 1.77 1.76 1.82 1.27 1.04 1.30 1.35 0.85 0.46 0.42 0.52 0.55 0.99
0.00 0.00 0.00 0.00 0.00 0.00 0.00 0.00 0.00 0.00 0.00 0.00 0.00 0.00 0.04 0.01 0.03 0.14 0.88 1.42 0.86 0.50 1.26 0.90 1.49 1.44 1.63 1.24 2.33 1.24 1.30 0.71 0.35 0.58 0.61 1.05 1.59 1.45 1.75 2.18 1.20 1.36 1.55 1.49 1.10 1.24 1.08 0.78 1.22 1.97 2.40 2.59 1.43 1.49 1.75 1.45 1.26 1.02 1.14 0.96 1.29 0.84 0.53 0.55 0.77 1.33 1.34 1.26 1.23 1.12 2.41 1.87 1.52 1.27 1.36 1.71 1.98 1.48 1.47 1.48 1.89 1.56 2.20 1.88 2.04 1.81 1.51 2.02 1.43 1.10 0.79 0.84 0.98 0.93 0.68 0.86 1.29
0.00 0.00 0.00 0.00 0.00 0.00 0.00 0.00 0.00 0.00 0.00 0.00 0.00 0.00 0.04 0.03 0.00 0.29 1.46 1.11 0.92 0.52 0.54 1.18 0.70 0.42 0.30 0.71 0.51 0.71 0.49 0.39 0.42 0.57 0.82 1.15 1.09 1.62 2.78 1.69 2.32 1.59 1.45 2.03 1.87 1.70 1.01 1.38 1.47 2.33 2.44 1.98 2.14 2.04 2.13 1.68 1.65 1.11 1.40 0.98 1.13 1.02 0.82 0.71 1.00 1.13 0.88 1.04 1.54 1.56 1.10 1.32 1.06 1.23 1.25 1.58 1.77 1.55 1.66 1.76 1.71 1.92 2.08 2.16 2.54 1.65 2.51 2.27 1.68 1.00 1.01 0.78 1.14 1.08 0.98 1.35 1.08
0.00 0.01 0.00 0.00 0.00 0.00 0.00 0.00 0.00 0.00 0.00 0.00 0.00 0.00 0.01 0.06 0.01 0.03 0.04 0.65 0.63 0.81 0.78 1.41 1.32 0.41 0.41 0.53 0.48 0.38 0.53 0.70 0.37 0.60 1.19 1.51 1.44 1.38 1.29 1.19 1.42 1.29 1.28 1.36 1.87 2.10 1.34 1.59 2.29 2.77 2.88 2.31 2.17 2.97 2.63 1.93 1.46 1.03 0.93 1.13 1.04 1.43 1.06 0.60 1.05 1.26 1.13 1.69 1.53 1.85 2.30 1.38 0.91 0.80 1.12 2.04 1.73 1.60 1.45 1.41 1.85 2.23 2.15 1.88 1.39 1.79 2.02 1.34 1.28 1.48 0.97 0.77 0.82 0.81 1.20 1.11 1.06
0.00 0.00 0.00 0.00 0.01 0.01 0.00 0.00 0.00 0.00 0.00 0.00 0.00 0.00 0.02 0.00 0.02 0.04 0.37 0.46 0.42 0.96 1.12 1.01 1.19 1.36 0.78 0.52 0.55 0.55 0.39 0.54 0.58 0.74 1.17 1.12 1.12 0.82 0.69 1.14 1.42 1.75 1.80 2.58 2.30 2.38 2.19 2.33 2.46 3.08 2.94 3.72 3.06 1.95 1.56 1.63 1.43 1.25 1.30 1.08 0.73 0.81 0.70 0.43 0.73 1.38 0.92 1.25 1.42 1.34 1.64 1.68 0.95 0.91 1.11 1.76 2.05 1.79 1.81 1.78 1.85 2.20 1.80 1.56 1.60 1.23 1.17 1.07 1.46 1.73 1.61 0.96 0.80 0.69 0.70 1.17 1.19
0.00 0.00 0.00 0.01 0.00 0.00 0.00 0.00 0.00 0.00 0.00 0.00 0.00 0.01 0.01 0.01 0.01 0.01 0.07 0.09 0.77 0.97 1.34 1.72 1.59 0.76 0.49 0.96 0.40 0.73 0.67 0.62 0.64 0.73 0.83 1.27 1.55 1.88 0.99 0.62 0.69 0.81 1.48 2.85 2.99 2.53 1.96 2.48 2.63 2.25 2.41 2.68 1.97 1.74 1.29 1.36 1.00 0.98 0.78 0.76 0.63 0.80 0.67 0.55 0.55 1.39 0.52 0.78 1.12 1.12 0.91 1.21 2.21 1.40 1.50 1.42 1.04 1.07 1.58 1.47 1.45 1.63 1.09 1.62 1.14 1.17 1.04 0.94 1.36 1.78 1.83 1.98 1.69 1.18 1.66 1.14 2.73
0.00 0.00 0.00 0.00 0.00 0.00 0.00 0.00 0.00 0.00 0.00 0.00 0.00 0.02 0.01 0.03 0.03 0.03 0.05 0.05 0.14 0.29 0.50 0.30 0.74 0.43 0.84 0.79 0.61 0.37 0.97 1.28 0.91 0.53 0.66 0.68 0.85 0.96 1.30 1.29 1.05 0.89 1.94 3.36 3.06 3.29 2.75 2.55 3.09 2.53 2.64 2.70 2.06 1.97 1.54 1.71 1.14 0.94 1.13 1.04 0.72 0.66 0.78 0.69 0.68 0.55 0.79 1.24 1.40 0.90 1.24 1.11 1.47 1.34 0.96 1.19 0.82 0.74 1.08 0.89 0.87 1.36 1.01 0.78 0.77 0.87 1.31 1.26 1.18 1.80 1.57 1.54 1.39 1.43 2.47 1.39 2.15
0.00 0.01 0.00 0.00 0.00 0.00 0.00 0.00 0.00 0.00 0.00 0.00 0.00 0.01 0.02 0.03 0.03 0.05 0.03 0.02 0.08 0.06 0.05 0.10 0.21 0.37 0.41 0.34 0.41 0.95 1.20 0.75 0.62 0.36 0.42 0.82 0.69 0.75 1.12 1.24 1.36 1.83 2.73 2.17 2.46 3.07 3.20 2.82 3.34 3.08 3.50 2.72 1.55 1.29 1.32 1.16 0.96 1.22 1.51 1.18 0.75 0.74 0.70 0.67 0.70 0.90 1.09 1.46 1.90 1.61 1.42 0.87 1.08 1.21 0.92 0.65 0.81 0.83 0.99 1.03 0.93 1.23 0.96 0.78 0.76 0.86 1.10 1.49 1.08 1.41 1.92 1.22 1.95 1.99 2.53 2.01 1.75
0.00 0.01 0.00 0.00 0.00 0.00 0.03 0.00 0.00 0.00 0.00 0.00 0.00 0.04 0.02 0.05 0.05 0.04 0.12 0.08 0.11 0.11 0.12 0.24 0.36 0.54 0.25 0.48 0.49 0.64 0.63 0.37 1.17 0.81 0.54 0.65 0.99 1.49 0.96 1.51 1.42 2.34 3.33 2.84 2.23 2.53 2.75 3.04 3.26 2.20 3.07 1.80 1.52 1.25 1.21 1.24 0.69 1.04 1.08 1.43 1.75 0.86 0.72 1.09 1.54 1.68 1.33 1.16 1.53 1.34 1.32 0.70 0.69 0.73 0.71 0.60 0.67 0.84 0.81 0.80 0.98 1.05 0.93 0.71 0.87 0.96 0.73 1.26 1.27 1.26 1.28 1.25 1.04 1.55 1.15 1.63 1.34
0.02 0.00 0.00 0.00 0.00 0.00 0.00 0.08 0.00 0.00 0.00 0.00 0.01 0.03 0.08 0.05 0.09 0.15 0.17 0.40 0.77 1.05 0.89 0.47 0.36 0.38 0.99 1.23 1.19 0.62 0.71 0.48 0.83 1.00 1.12 1.30 1.74 2.08 2.04 2.09 2.97 3.39 2.78 2.64 2.59 2.64 2.96 3.52 3.10 1.94 2.45 2.17 1.44 1.49 1.39 1.24 1.29 1.46 1.29 1.89 1.93 1.50 1.34 1.27 1.69 1.36 1.03 1.21 1.25 1.32 1.11 0.59 0.77 0.99 0.85 0.79 0.48 0.67 0.48 0.65 0.96 0.83 0.91 0.75 0.69 0.95 0.89 0.95 1.18 1.56 1.19 1.15 0.81 1.04 1.87 0.97 1.11
0.01 0.03 0.02 0.00 0.00 0.00 0.00 0.00 0.00 0.01 0.02 0.00 0.00 0.03 0.12 0.19 0.11 0.13 0.15 0.26 1.05 1.77 1.27 0.35 0.72 0.87 1.19 1.50 1.07 1.77 1.69 0.72 0.79 0.77 0.56 0.46 0.76 0.99 2.30 3.84 2.82 2.31 2.02 3.41 2.95 3.76 3.65 3.27 2.04 1.99 2.78 2.49 1.62 1.41 1.13 1.45 1.07 1.63 1.46 1.05 1.23 0.92 0.99 1.04 1.51 0.92 1.13 1.23 1.30 0.98 0.82 0.90 1.13 0.83 0.95 0.80 0.86 0.83 0.77 0.83 0.97 0.80 0.98 0.78 0.93 1.06 0.86 1.53 0.90 1.13 1.14 0.93 1.40 1.21 1.48 1.05 1.36
0.01 0.02 0.00 0.01 0.01 0.00 0.01 0.00 0.00 0.00 0.03 0.08 0.00 0.03 0.18 0.15 0.37 0.42 0.34 0.26 0.31 0.43 0.70 0.31 0.22 0.76 0.98 0.97 0.82 1.09 1.08 0.68 0.62 0.84 0.84 0.66 1.16 1.52 2.98 2.91 2.13 1.92 2.21 1.50 2.79 4.01 4.13 3.77 2.03 1.61 1.99 2.47 2.08 1.99 2.47 2.40 1.81 1.63 1.33 1.39 1.26 1.23 1.21 1.20 1.21 0.97 0.91 0.87 0.85 0.98 1.39 1.35 1.32 0.92 0.72 0.48 0.63 0.63 0.74 0.61 0.66 0.81 0.57 0.97 0.91 1.03 0.88 0.92 0.66 0.86 0.96 1.38 0.78 1.00 1.00 1.18 1.01
0.01 0.01 0.01 0.00 0.00 0.00 0.02 0.01 0.00 0.02 0.00 0.00 0.00 0.00 0.15 0.13 0.33 0.36 0.36 0.22 0.46 0.43 0.28 0.64 1.00 0.73 1.35 1.21 0.89 0.87 0.54 0.60 0.57 0.88 1.10 1.08 1.21 1.68 2.03 2.04 1.95 2.43 2.65 2.07 4.13 4.44 2.16 1.92 1.65 1.40 2.03 2.76 2.53 2.05 3.06 1.94 1.59 1.77 1.51 1.71 1.86 1.50 1.20 1.23 0.99 0.88 1.11 1.84 1.38 0.89 1.35 1.12 0.84 0.68 0.56 0.67 0.47 0.44 0.73 0.96 0.76 0.88 0.53 0.43 0.75 1.20 1.08 0.74 0.76 0.87 1.32 1.34 0.66 0.82 1.19 1.14 0.64
0.01 0.00 0.00 0.00 0.00 0.01 0.01 0.01 0.01 0.03 0.01 0.11 0.01 0.00 0.03 0.08 0.24 0.72 0.78 0.49 0.91 0.69 0.43 0.66 0.48 0.50 1.16 0.80 0.65 0.73 0.57 0.43 0.88 1.08 1.14 1.22 1.91 1.71 1.30 1.33 1.31 1.75 2.25 2.95 2.62 3.34 2.94 2.66 1.73 1.60 2.79 2.78 2.19 1.17 1.02 1.16 1.52 2.41 2.05 1.75 1.61 1.28 1.12 1.13 1.15 1.55 1.32 1.69 0.73 0.83 0.73 0.74 0.78 0.76 1.04 0.75 1.03 0.97 0.86 0.76 0.80 0.46 0.63 0.59 0.53 0.88 0.83 0.91 0.71 0.75 0.81 0.65 0.64 0.83 0.79 1.45 1.26
0.03 0.00 0.00 0.00 0.00 0.00 0.01 0.03 0.02 0.07 0.01 0.03 0.05 0.08 0.02 0.10 0.25 0.57 1.28 0.65 0.69 0.91 0.89 0.28 0.25 0.25 0.41 0.48 0.55 0.48 0.67 0.63 0.37 1.02 0.44 1.16 1.65 2.56 2.08 2.03 1.69 2.26 2.02 2.31 2.92 4.97 2.83 2.32 3.06 2.24 2.96 2.52 1.91 1.11 1.36 2.10 2.11 2.04 2.24 1.37 1.31 1.29 1.20 1.23 0.99 0.74 0.64 0.58 0.88 0.95 0.88 1.09 0.91 0.86 0.77 0.81 0.99 0.94 0.60 0.45 0.48 0.39 0.52 0.72 1.17 0.59 0.72 0.70 0.59 0.81 0.70 0.61 0.74 0.87 1.12 1.22 1.14
0.00 0.00 0.01 0.00 0.00 0.02 0.01 0.02 0.08 0.07 0.02 0.01 0.02 0.03 0.01 0.13 0.20 0.17 0.56 0.25 0.16 0.11 0.31 0.29 0.34 1.07 0.80 0.76 0.66 0.42 0.48 0.60 0.57 1.04 1.16 0.84 1.18 1.33 1.52 1.48 1.92 2.22 2.64 2.45 3.25 3.89 1.98 2.16 2.65 3.13 3.49 2.62 1.67 2.69 2.34 2.68 2.44 3.46 1.28 1.15 1.19 0.87 0.67 0.58 1.10 0.68 0.54 1.34 1.01 0.97 1.58 1.60 1.56 1.01 0.93 0.73 0.48 0.53 0.49 0.38 0.32 0.40 0.57 0.66 0.42 0.54 0.65 0.54 0.45 0.78 1.11 0.92 1.69 1.10 0.94 0.80 0.83
0.01 0.02 0.03 0.01 0.03 0.01 0.03 0.06 0.06 0.12 0.02 0.04 0.02 0.01 0.02 0.09 0.20 0.14 0.11 0.09 0.06 0.09 0.15 0.16 0.29 0.28 0.48 0.78 0.34 0.36 0.53 0.65 0.79 0.77 0.92 1.16 2.35 2.28 2.43 2.89 3.05 3.48 2.54 2.03 1.68 1.69 1.56 1.25 2.32 2.28 3.55 2.73 3.05 3.44 2.78 3.50 2.98 1.50 1.50 1.74 1.01 0.72 0.63 0.53 0.78 0.50 0.47 0.63 0.27 0.62 1.09 2.38 1.81 1.61 0.82 0.70 0.29 0.24 0.37 0.36 0.33 0.36 0.35 0.40 0.40 0.35 0.73 0.78 0.87 0.74 0.87 0.85 0.94 0.63 0.96 0.85 0.73
0.04 0.03 0.03 0.27 0.27 0.09 0.21 0.13 0.11 0.01 0.03 0.06 0.02 0.03 0.05 0.02 0.29 0.14 0.23 0.22 0.12 0.07 0.11 0.19 0.26 0.38 0.33 0.64 0.40 0.54 0.54 0.95 0.92 1.50 3.28 2.44 1.94 1.89 1.89 1.74 1.75 1.52 2.02 1.78 1.56 1.21 0.86 1.85 2.08 2.90 4.07 3.25 3.08 2.97 3.02 2.82 1.63 1.27 1.05 0.73 0.61 0.47 0.62 0.80 1.16 0.45 0.57 0.47 0.55 0.86 0.83 1.16 1.13 0.77 0.91 0.65 0.45 0.56 0.52 0.47 0.52 0.43 0.50 0.24 0.62 0.59 0.83 0.62 1.10 0.91 0.72 0.95 1.18 0.52 0.58 0.83 1.23
0.04 0.04 0.15 0.15 0.33 0.24 0.06 0.17 0.11 0.12 0.03 0.02 0.06 0.07 0.12 0.29 0.43 0.10 0.30 0.20 0.11 0.12 0.13 0.49 0.80 0.66 0.27 0.55 0.56 0.84 1.51 1.80 1.97 4.36 3.07 2.86 2.12 0.95 1.65 1.87 2.63 2.58 1.99 1.41 1.10 0.76 1.25 2.29 3.19 3.00 3.59 2.28 2.16 2.47 2.22 1.44 1.12 1.03 0.97 0.57 0.44 0.37 0.66 0.62 0.88 0.74 1.29 1.32 1.02 1.09 0.91 0.73 0.98 0.77 0.84 0.84 0.76 0.97 0.91 0.78 1.05 0.76 1.00 0.89 0.66 0.43 0.54 1.07 1.26 1.25 1.41 1.23 0.70 0.48 1.24 1.11 0.92
0.02 0.01 0.04 0.31 0.27 0.22 0.16 0.09 0.16 0.12 0.24 0.04 0.05 0.01 0.06 0.09 1.08 0.33 0.23 0.12 0.07 0.07 0.17 0.22 0.25 0.51 0.85 0.63 0.66 1.15 2.95 3.20 3.70 2.12 1.10 0.78 0.77 0.94 0.94 1.61 1.71 1.54 1.36 1.02 0.65 0.63 0.78 2.47 2.85 3.53 5.18 2.64 3.01 1.69 1.64 1.29 1.26 1.09 1.09 1.11 1.15 0.70 0.67 0.38 0.47 0.52 0.70 1.00 1.33 1.11 1.07 1.05 0.74 0.74 0.90 0.87 0.77 0.75 0.52 1.19 0.74 1.27 0.75 0.42 0.41 0.36 0.46 0.62 0.94 0.76 0.52 0.55 0.79 0.64 0.94 1.13 1.12
0.01 0.03 0.04 0.10 0.10 0.06 0.36 0.45 0.18 0.33 0.30 0.07 0.05 0.13 0.52 0.90 1.18 0.49 0.17 0.10 0.09 0.10 0.27 0.31 0.43 0.40 0.50 1.37 2.01 2.29 2.07 2.04 1.43 0.98 0.52 0.70 0.76 0.55 0.33 0.62 0.77 1.31 1.39 1.92 1.13 1.56 2.05 3.13 2.46 3.05 3.85 2.22 2.10 1.84 2.07 1.88 1.18 1.01 0.98 0.48 1.03 1.20 0.36 0.95 0.54 0.89 0.60 0.68 0.78 0.62 0.50 0.64 0.61 0.72 0.64 0.74 0.99 0.73 0.81 0.85 1.26 0.72 0.58 0.41 0.40 0.67 1.08 1.45 0.60 0.53 0.53 0.70 0.47 0.46 1.03 1.43 0.78
0.18 0.01 0.09 0.07 0.05 0.08 0.13 0.10 0.09 0.09 0.08 0.08 0.02 0.17 0.39 0.41 1.05 0.55 0.41 0.27 0.22 0.11 0.24 0.14 0.44 0.78 0.91 1.66 1.67 1.46 1.35 1.41 1.14 1.63 1.75 1.28 0.76 0.63 0.46 0.85 0.92 0.59 1.58 1.92 1.95 2.40 2.09 1.96 1.83 2.09 3.98 3.44 3.10 2.62 2.58 2.02 1.19 0.81 0.66 0.70 0.84 0.58 0.35 0.59 1.13 0.58 0.36 0.28 0.39 0.54 0.46 0.38 0.56 0.72 0.34 0.30 0.37 0.79 0.63 0.57 0.45 0.77 0.54 0.48 0.46 0.46 0.58 0.83 1.02 0.75 0.71 0.65 0.45 0.26 0.36 0.61 0.53
0.09 0.12 0.09 0.12 0.13 0.21 0.22 0.43 0.30 0.12 0.24 0.10 0.05 0.10 0.39 0.12 0.77 0.83 0.56 0.66 0.36 0.32 0.29 0.25 0.36 0.68 0.93 1.34 0.90 0.68 1.37 1.30 1.15 1.56 1.81 1.90 1.27 1.45 1.59 1.21 0.80 0.84 1.58 1.48 1.57 2.54 2.18 2.10 1.61 2.56 4.71 2.26 3.62 3.04 1.97 1.40 1.24 0.92 1.02 1.27 1.03 1.05 0.69 0.71 0.62 0.29 0.15 0.33 0.37 0.44 0.59 0.21 0.25 0.25 0.28 0.45 0.79 1.02 0.78 0.57 0.58 0.57 0.78 0.57 0.58 0.54 0.80 0.72 0.72 0.77 0.60 0.50 0.41 0.70 0.59 0.49 0.48
0.12 0.15 0.09 0.10 0.30 0.26 0.11 0.14 0.30 0.24 0.23 0.26 0.16 0.15 0.12 0.19 0.76 0.54 0.60 0.36 0.46 0.44 0.24 0.22 0.34 0.70 1.04 1.22 1.13 0.88 1.14 0.98 0.92 0.89 1.19 1.33 0.79 0.55 0.56 0.71 0.91 0.99 0.83 0.55 0.66 0.60 0.93 1.68 2.49 3.18 3.21 3.05 2.71 1.74 1.45 1.10 0.79 1.20 0.86 0.99 0.95 0.70 0.29 0.22 0.27 0.29 0.18 0.18 0.19 0.25 0.34 0.78 0.28 0.50 0.39 0.29 0.33 0.43 0.51 0.35 0.55 0.53 0.51 0.47 0.50 0.45 0.47 0.50 0.64 0.54 0.52 0.52 0.68 0.54 0.65 0.67 0.52
0.04 0.00 0.06 0.09 0.09 0.26 0.34 0.30 0.54 0.53 0.43 0.25 0.34 0.24 0.23 0.29 0.56 0.18 0.31 0.21 0.32 0.28 0.37 0.36 0.47 0.38 0.46 0.42 0.44 0.51 0.63 0.87 1.01 0.95 0.98 1.42 1.48 1.76 1.56 0.93 0.92 0.74 0.70 0.61 0.49 0.41 0.48 1.04 1.95 2.33 1.95 1.69 1.32 1.33 0.92 0.58 1.06 0.62 0.47 0.61 0.43 0.44 0.32 0.33 0.33 0.47 0.24 0.14 0.08 0.15 0.26 0.33 0.39 0.50 0.55 0.79 0.31 0.22 0.26 0.16 0.16 0.30 0.39 0.40 0.37 0.37 0.50 0.73 0.47 0.44 0.50 0.28 0.40 0.60 0.67 0.33 0.51
0.10 0.06 0.08 0.16 0.16 0.28 0.15 0.56 0.25 0.36 0.37 0.31 0.29 0.29 0.54 0.66 0.27 0.29 0.23 0.52 0.41 0.29 0.27 0.40 0.54 0.91 0.69 1.16 1.11 0.86 0.45 0.43 0.76 0.91 0.90 0.76 0.66 0.91 0.61 0.76 0.70 1.05 0.65 0.51 0.61 0.76 0.69 0.81 0.84 0.84 0.87 0.74 0.58 1.15 0.85 0.67 0.36 0.96 0.59 0.63 0.98 1.03 0.61 0.49 0.40 0.33 0.28 0.19 0.14 0.09 0.12 1.13 0.81 0.46 0.50 0.67 0.37 0.23 0.30 0.35 0.28 0.36 0.32 0.25 0.28 0.26 0.31 0.37 0.42 0.37 0.30 0.35 0.32 0.21 0.24 0.37 0.26
0.29 0.15 0.19 0.21 0.45 0.62 0.63 0.45 0.09 0.18 0.26 0.32 0.24 0.33 0.54 0.60 0.20 0.57 0.54 0.36 0.80 0.60 0.63 0.66 0.78 0.63 0.85 0.96 0.70 0.69 1.02 0.82 0.58 0.75 0.64 0.82 1.36 0.88 0.67 0.56 0.54 0.50 0.73 0.59 0.47 0.68 0.67 0.51 0.62 0.70 1.29 0.75 0.62 1.39 1.51 1.25 1.15 1.11 1.15 1.13 1.04 1.25 1.18 0.96 0.60 0.29 0.33 0.19 0.18 0.33 0.30 0.38 0.42 0.78 0.96 0.62 0.79 0.66 0.45 0.32 0.32 0.37 0.36 0.48 0.38 0.21 0.30 0.30 0.26 0.49 0.50 0.46 0.89 0.75 0.49 0.48 0.85